Wetbulb
54.57 54.41 54.51 54.34 54.09 54.16 54.42 55.88 57.15 58.13 59.43 60.43 59.43 58.90 58.58 58.55 58.59 56.53 52.56 56.80 58.22 64.12 62.15 58.66 56.44 54.70 53.56 49.33 50.76 48.09 39.30 37.32 39.96 40.79 42.34 47.51 45.37 48.78 50.91 47.65 48.54 48.97 54.76 59.05 62.65
54.98 55.09 54.56 54.26 54.01 53.73 53.52 53.81 55.43 56.73 58.00 59.59 59.85 59.04 58.23 58.25 54.87 52.28 58.55 62.51 63.50 64.93 58.80 54.74 52.39 52.80 47.73 47.23 47.55 44.25 39.03 40.20 45.02 45.75 44.14 46.79 47.17 48.31 47.37 46.66 45.70 50.76 56.30 61.24 62.06
55.01 54.75 54.69 54.43 54.30 53.38 53.48 53.29 53.16 54.85 56.68 58.33 60.15 58.87 57.93 57.43 50.40 50.59 61.42 63.20 63.83 63.83 59.25 55.48 53.91 51.45 46.50 46.47 45.52 44.11 40.83 45.40 47.48 48.94 48.30 47.66 47.49 49.23 46.38 44.64 46.21 46.97 53.98 56.85 59.19
54.73 54.56 54.21 54.00 53.90 53.65 53.28 52.99 52.78 53.81 55.37 57.41 58.85 58.45 57.64 54.51 38.43 54.82 63.35 63.55 64.23 61.88 57.26 55.03 52.58 47.52 44.84 43.59 46.57 41.22 45.58 47.40 48.76 49.93 47.83 46.20 49.00 46.62 47.35 47.41 50.12 49.68 50.33 51.49 55.40
54.16 53.86 53.49 53.39 53.26 53.03 53.03 52.45 52.53 52.76 54.34 56.48 57.65 58.33 54.72 47.31 47.61 56.89 62.31 63.15 61.11 59.15 55.07 53.52 50.45 47.33 43.59 44.52 45.39 41.56 43.67 47.06 48.36 48.39 46.79 47.97 46.54 46.55 47.12 50.16 50.87 49.58 50.76 50.35 50.44
53.30 52.91 52.67 52.75 52.74 52.62 52.43 52.59 52.44 52.62 53.53 55.28 56.97 57.75 50.89 41.18 54.25 57.65 58.40 59.91 59.38 57.77 55.59 54.97 51.78 49.43 45.47 44.55 43.76 44.85 45.68 45.61 46.86 46.71 46.55 45.74 45.23 45.35 46.08 49.24 48.91 49.10 48.40 48.72 49.68
52.64 52.26 52.19 52.31 52.09 52.26 52.31 52.40 52.51 52.32 53.16 54.39 56.03 54.88 48.21 44.75 52.88 56.27 57.32 56.54 57.83 57.65 54.29 55.46 54.64 49.02 47.65 44.32 47.73 45.66 41.85 43.46 44.60 45.32 44.68 46.26 43.27 42.30 47.35 48.18 46.97 47.07 47.34 48.51 48.73
51.98 51.88 51.84 51.83 51.54 51.70 51.96 51.85 51.78 52.08 52.78 53.72 54.99 53.76 43.79 53.94 53.52 52.52 52.18 51.65 54.07 56.49 57.18 58.03 56.34 50.91 47.89 47.26 45.02 42.03 40.83 36.33 42.57 44.60 45.45 44.90 38.10 43.80 47.03 44.63 45.14 45.76 46.06 46.86 48.84
51.27 51.38 51.37 51.29 51.30 51.29 51.27 51.61 52.05 52.20 52.62 53.31 50.16 49.82 41.94 55.86 49.97 52.45 51.57 50.20 52.32 54.92 55.66 58.10 55.43 49.98 47.78 41.47 37.51 38.17 32.31 35.43 38.99 45.00 44.21 42.03 37.58 44.83 48.18 45.37 43.67 44.72 44.75 46.00 47.53
50.81 50.81 50.90 50.93 50.70 50.80 51.07 51.30 51.36 51.07 50.03 51.04 50.49 43.96 46.42 45.06 50.23 51.67 51.13 51.28 50.70 52.98 52.05 51.92 50.15 45.72 44.84 40.41 32.54 33.94 33.09 33.91 35.57 40.35 41.16 39.58 39.22 43.07 44.42 44.06 43.92 43.74 44.33 44.88 45.96
50.70 50.48 50.58 50.46 50.74 50.79 48.52 44.18 39.10 40.06 43.90 43.10 44.36 43.69 45.37 50.05 51.71 50.04 50.74 49.04 50.64 48.82 42.78 48.07 42.44 39.18 42.37 43.00 40.14 38.29 38.21 37.99 37.37 40.84 37.13 36.51 35.81 38.55 41.77 40.88 41.18 43.76 44.25 44.51 45.50
50.16 50.20 50.32 50.72 51.03 50.84 47.47 40.08 39.88 42.27 35.23 44.23 45.50 46.37 49.12 49.65 44.05 47.85 51.30 46.13 44.27 41.49 44.38 43.63 39.46 42.29 44.25 43.96 41.59 39.30 37.56 34.77 36.75 39.43 36.84 35.53 35.37 39.25 40.93 41.55 42.57 43.77 44.65 44.54 45.39
50.10 50.09 50.37 50.79 50.79 46.82 44.53 41.82 46.49 45.80 36.28 39.85 45.26 44.83 46.39 48.20 43.23 44.18 48.76 46.81 42.96 40.74 38.42 38.40 40.17 44.35 43.23 41.49 40.37 37.74 32.50 32.06 33.21 36.19 35.11 33.90 33.36 34.76 38.11 40.00 41.48 43.53 44.37 44.71 44.56
49.48 49.99 50.41 50.77 46.75 46.07 42.38 46.22 47.39 46.63 30.01 34.45 40.60 45.44 47.23 47.57 41.58 48.45 50.74 46.96 43.35 39.81 39.85 37.82 41.15 40.95 40.20 38.76 36.55 32.90 37.03 36.51 34.75 31.25 25.49 33.53 23.76 29.70 34.72 35.99 37.70 37.88 38.38 41.21 42.93
49.66 49.89 50.59 50.77 46.08 42.54 45.42 47.82 47.64 42.64 12.24 37.75 40.69 50.94 47.50 43.31 43.01 44.36 49.80 46.86 39.83 40.52 40.29 35.87 37.86 36.99 35.73 37.30 39.30 34.33 38.01 35.35 33.89 29.27 26.57 26.69 24.07 27.85 31.98 33.50 35.45 36.79 37.75 39.23 39.88
50.59 50.80 50.86 48.60 46.27 46.56 48.67 47.36 43.06 27.49 16.39 35.75 41.84 41.12 40.58 41.71 42.09 44.11 45.17 46.79 46.34 41.43 40.43 37.48 41.58 39.49 37.89 39.18 38.79 38.89 34.64 32.22 31.37 26.97 17.68 25.02 24.99 25.04 29.06 33.00 34.12 36.67 39.12 39.88 40.91
51.20 51.10 50.08 49.08 43.63 48.71 47.82 42.96 23.12 20.89 32.89 32.70 36.63 39.70 38.33 37.52 38.99 41.11 40.00 36.61 34.60 32.68 32.66 37.16 36.67 39.36 40.42 35.32 37.80 35.29 28.50 18.46 15.77 14.33 17.71 27.06 25.23 26.62 33.08 36.99 36.66 38.32 39.24 39.84 39.64
51.63 50.70 47.95 48.57 48.61 46.17 42.26 31.61 19.74 29.52 32.88 39.07 38.14 38.38 35.62 37.98 38.03 39.40 37.44 33.54 37.12 34.12 30.95 27.86 23.50 35.32 38.21 35.56 32.96 32.72 29.38 19.66 14.79 17.44 20.18 28.24 23.25 28.85 35.48 37.81 38.00 38.32 38.78 39.07 39.27
48.85 46.22 45.50 46.29 47.26 44.27 36.75 21.55 25.76 31.04 36.67 36.87 37.41 35.26 34.87 36.83 37.55 36.99 36.04 33.34 35.65 34.93 28.10 24.83 26.52 38.23 38.68 38.74 36.84 31.83 25.54 31.24 22.50 21.23 15.66 22.73 26.10 32.09 34.73 35.10 36.63 37.87 39.48 39.87 39.27
41.85 42.86 43.36 48.44 46.41 42.61 33.52 30.41 31.31 34.66 39.70 38.79 31.95 34.38 31.63 33.89 33.90 34.83 34.32 36.69 35.39 37.77 36.63 33.41 25.55 36.55 38.99 40.40 39.88 33.59 35.08 22.95 17.84 10.78 13.44 19.75 21.56 26.15 31.16 33.38 35.95 36.40 38.31 40.91 42.59
39.02 38.58 42.91 47.28 45.16 38.12 29.42 32.84 34.46 39.47 40.84 37.01 33.76 32.33 33.75 32.90 33.41 33.23 33.37 36.36 37.84 36.36 38.02 35.31 30.52 31.09 37.87 32.21 30.94 33.19 30.65 28.91 27.07 23.32 18.26 17.37 22.96 31.64 32.40 33.79 35.17 36.10 37.66 39.70 41.35
36.10 30.59 42.81 47.41 33.51 36.53 32.97 35.29 35.61 37.19 41.85 39.79 36.83 36.15 34.18 34.96 32.51 32.39 31.49 33.74 38.91 38.28 34.32 37.79 30.82 20.59 30.59 33.86 35.91 33.62 30.75 28.57 17.81 16.54 20.60 21.31 24.68 36.89 34.33 35.28 38.07 40.80 42.09 44.58 45.56
33.82 36.62 44.76 44.70 32.42 31.16 37.18 36.48 36.80 40.04 39.97 39.02 35.84 36.75 36.98 33.91 30.75 32.92 34.14 39.06 40.13 39.28 35.87 35.99 26.68 17.86 24.24 29.39 32.70 30.17 32.26 31.65 29.59 29.49 17.30 20.46 24.25 36.23 35.80 40.45 42.48 43.50 44.96 46.16 46.30
34.45 26.28 37.13 41.42 40.65 35.93 33.42 35.49 36.91 41.38 40.31 39.35 36.72 38.44 36.90 33.85 35.38 34.24 33.11 38.00 41.48 41.66 44.10 39.69 30.04 24.60 21.04 23.11 27.52 23.34 30.34 31.75 30.90 26.33 22.76 24.56 28.61 34.34 37.03 39.81 42.58 43.99 45.36 44.96 44.60
38.66 31.86 35.53 31.09 37.77 38.61 38.73 38.03 36.94 36.76 40.37 40.25 38.28 38.39 37.08 33.42 34.86 33.61 35.21 35.57 39.34 41.58 39.35 34.60 24.22 26.20 28.69 31.70 28.70 28.80 29.76 30.69 25.38 30.31 23.59 29.30 30.35 34.74 37.97 40.28 42.62 45.00 44.32 44.12 43.86
37.27 36.92 39.34 38.08 39.86 35.31 36.90 36.06 36.57 37.73 38.00 36.55 36.19 37.94 37.55 35.03 33.90 33.14 34.65 33.74 33.23 35.42 34.06 34.47 22.62 26.11 24.51 31.28 31.20 28.03 30.96 31.17 31.52 32.23 32.51 32.21 31.66 39.01 41.81 44.78 44.40 41.53 41.56 41.20 42.83
42.81 43.93 41.01 36.52 35.31 32.90 33.66 35.69 37.67 38.11 40.03 40.94 39.53 38.20 37.43 38.37 39.31 38.07 38.10 37.90 36.94 34.16 33.09 32.43 27.45 23.87 20.91 28.63 28.70 25.82 30.87 32.24 32.71 33.73 34.84 32.51 37.56 42.28 42.43 43.35 40.05 39.60 38.39 36.72 36.69
MSLP
1018.29 1017.80 1017.44 1017.09 1016.78 1016.51 1016.05 1015.74 1015.36 1014.88 1014.44 1014.10 1014.12 1014.30 1014.26 1014.34 1014.40 1014.26 1013.62 1012.73 1012.77 1012.40 1012.45 1012.87 1013.32 1013.46 1013.82 1014.05 1014.22 1014.63 1015.59 1015.50 1014.68 1014.10 1012.74 1011.64 1011.50 1010.63 1009.50 1009.38 1008.79 1008.61 1008.85 1008.61 1009.16
1017.95 1017.58 1017.15 1016.76 1016.54 1016.22 1015.92 1015.44 1015.26 1014.75 1014.36 1013.89 1013.72 1013.94 1014.03 1014.18 1014.16 1013.29 1012.07 1011.81 1011.86 1012.02 1012.48 1012.94 1013.15 1013.48 1013.96 1014.10 1014.24 1014.51 1014.86 1014.45 1013.74 1013.24 1012.70 1012.10 1011.75 1011.26 1010.47 1009.72 1009.50 1009.15 1008.88 1008.89 1009.42
1017.62 1017.19 1016.76 1016.32 1016.05 1015.83 1015.63 1015.29 1014.97 1014.68 1014.17 1013.64 1013.18 1013.46 1013.83 1014.05 1013.85 1011.36 1010.26 1011.09 1011.32 1011.65 1012.33 1012.70 1013.09 1013.48 1013.93 1014.00 1014.15 1014.12 1014.08 1013.93 1013.15 1012.85 1012.55 1012.25 1011.87 1011.64 1011.31 1010.65 1010.56 1010.27 1009.61 1009.59 1009.76
1017.26 1016.80 1016.55 1016.22 1015.84 1015.46 1015.34 1015.00 1014.68 1014.55 1014.04 1013.60 1013.17 1013.08 1013.55 1013.93 1012.76 1010.04 1009.68 1010.32 1010.68 1011.39 1012.10 1012.59 1013.32 1013.62 1013.84 1013.92 1013.77 1013.85 1013.55 1013.44 1012.98 1012.69 1012.67 1012.37 1012.00 1011.87 1011.64 1010.94 1010.62 1010.76 1010.46 1010.44 1010.39
1016.94 1016.53 1016.24 1015.85 1015.63 1015.15 1014.88 1014.64 1014.39 1014.10 1013.74 1013.37 1013.06 1012.69 1013.36 1013.44 1011.53 1009.86 1009.67 1010.00 1010.58 1011.30 1011.91 1012.52 1013.13 1013.39 1013.50 1013.48 1013.64 1013.58 1013.44 1013.12 1012.77 1012.68 1012.72 1012.45 1012.21 1012.03 1011.56 1011.03 1010.60 1010.97 1010.87 1010.76 1010.74
1016.45 1016.13 1015.80 1015.43 1015.09 1014.91 1014.64 1014.20 1013.89 1013.65 1013.37 1013.07 1012.74 1012.48 1012.87 1012.40 1010.34 1009.83 1009.79 1010.11 1010.50 1011.37 1011.95 1012.35 1012.53 1012.81 1013.01 1013.05 1013.37 1013.06 1013.18 1013.11 1012.85 1012.84 1012.69 1012.58 1012.18 1012.10 1011.47 1011.14 1010.94 1010.77 1010.96 1011.03 1010.64
1016.05 1015.72 1015.29 1014.91 1014.74 1014.45 1014.13 1013.78 1013.44 1013.34 1013.20 1012.85 1012.58 1012.49 1012.24 1010.98 1010.12 1009.83 1010.03 1010.34 1010.60 1011.19 1011.67 1012.03 1012.28 1012.58 1012.75 1012.89 1012.90 1013.14 1013.51 1013.37 1012.96 1012.72 1012.49 1012.43 1011.82 1011.41 1011.40 1011.10 1011.20 1010.91 1010.71 1010.56 1010.54
1015.92 1015.38 1014.88 1014.52 1014.37 1014.11 1013.71 1013.40 1013.07 1012.86 1012.74 1012.51 1012.41 1012.18 1011.40 1010.16 1010.05 1010.30 1010.21 1010.55 1010.75 1010.97 1011.29 1011.62 1012.18 1012.47 1012.68 1012.71 1013.02 1013.37 1013.82 1013.61 1012.90 1012.58 1012.23 1012.63 1011.06 1011.19 1011.01 1011.18 1011.27 1010.91 1010.84 1010.19 1009.92
1015.62 1015.06 1014.66 1014.42 1014.05 1013.68 1013.35 1013.03 1012.58 1012.25 1012.17 1012.03 1012.20 1011.53 1010.76 1009.40 1009.98 1009.97 1010.32 1010.49 1010.66 1010.93 1011.31 1011.95 1012.30 1012.87 1012.81 1013.05 1013.55 1013.78 1014.17 1013.98 1013.41 1012.38 1012.34 1012.43 1011.66 1010.84 1010.58 1010.99 1011.19 1010.81 1010.50 1010.19 1009.47
1015.25 1014.87 1014.49 1014.07 1013.62 1013.49 1013.05 1012.58 1011.72 1011.67 1011.70 1011.73 1011.61 1011.74 1010.36 1009.27 1009.21 1009.72 1010.25 1010.45 1010.63 1010.97 1011.76 1012.38 1012.83 1012.99 1013.02 1013.23 1013.67 1014.17 1014.24 1014.05 1013.61 1012.85 1012.49 1012.35 1012.09 1011.12 1010.87 1010.84 1010.67 1010.55 1010.11 1009.68 1009.36
1014.92 1014.54 1014.12 1013.72 1013.41 1013.23 1013.08 1012.73 1012.03 1012.07 1011.69 1010.53 1009.98 1009.73 1008.96 1008.77 1008.98 1009.64 1010.02 1010.39 1010.72 1011.34 1011.84 1012.22 1012.52 1012.78 1013.04 1013.18 1013.50 1013.92 1014.06 1014.14 1013.71 1013.40 1013.08 1012.58 1012.26 1011.68 1010.92 1010.68 1010.39 1009.87 1009.51 1009.05 1008.60
1014.63 1014.24 1013.84 1013.50 1013.22 1012.98 1013.04 1013.06 1012.54 1012.77 1011.73 1010.10 1010.11 1009.58 1008.50 1008.32 1008.93 1009.56 1009.91 1010.40 1010.89 1011.56 1012.06 1012.60 1012.30 1012.52 1013.20 1013.58 1013.79 1014.06 1014.22 1014.32 1013.94 1013.76 1013.75 1013.10 1012.16 1011.34 1010.36 1009.42 1009.17 1008.80 1008.51 1008.30 1008.15
1014.34 1013.92 1013.56 1013.21 1012.81 1012.87 1012.81 1012.72 1012.40 1012.47 1012.05 1010.69 1010.41 1009.51 1008.40 1008.36 1008.74 1009.34 1009.93 1010.09 1010.94 1011.75 1012.16 1012.24 1012.22 1012.31 1012.78 1013.24 1013.67 1014.09 1014.55 1014.84 1015.06 1014.61 1014.40 1013.93 1012.22 1010.92 1009.60 1008.71 1008.14 1007.62 1007.61 1007.83 1007.54
1013.98 1013.50 1013.09 1012.77 1012.78 1012.55 1012.59 1012.22 1012.28 1012.24 1012.14 1010.52 1009.70 1008.82 1008.46 1008.54 1009.32 1009.52 1009.75 1010.06 1011.10 1011.76 1012.23 1012.53 1012.42 1012.33 1012.68 1013.11 1013.72 1014.31 1014.64 1015.15 1015.68 1015.95 1016.30 1015.55 1014.23 1011.91 1010.02 1008.93 1008.04 1007.53 1007.60 1007.22 1006.95
1013.55 1013.07 1012.58 1012.52 1012.15 1012.05 1012.29 1012.28 1012.40 1012.51 1011.62 1010.04 1009.55 1008.86 1008.49 1008.88 1009.11 1009.88 1009.84 1009.97 1010.85 1011.32 1012.09 1012.65 1012.50 1012.61 1012.99 1013.32 1013.83 1014.76 1015.15 1015.89 1016.56 1017.18 1017.44 1016.70 1016.32 1012.15 1010.53 1009.19 1007.96 1007.29 1007.15 1006.68 1006.50
1012.81 1012.38 1011.98 1011.76 1011.79 1011.59 1012.02 1012.39 1012.78 1012.71 1011.14 1009.64 1009.18 1009.00 1009.10 1009.45 1009.57 1010.00 1010.30 1010.48 1010.76 1011.62 1012.32 1012.81 1012.86 1013.03 1013.13 1013.58 1014.02 1015.00 1015.91 1016.93 1017.72 1018.48 1018.53 1016.66 1016.12 1013.18 1010.88 1009.24 1007.99 1007.55 1007.23 1006.79 1006.29
1011.72 1011.45 1011.47 1011.23 1011.16 1011.27 1011.96 1012.58 1012.82 1011.82 1010.80 1009.69 1008.81 1009.00 1009.48 1009.96 1010.18 1010.46 1010.95 1011.23 1011.45 1012.37 1013.16 1013.47 1013.67 1013.49 1013.32 1014.16 1014.77 1015.57 1016.80 1018.61 1019.57 1019.90 1018.42 1016.90 1016.25 1013.01 1010.34 1008.86 1008.27 1008.00 1007.45 1006.81 1006.30
1010.51 1010.86 1011.25 1011.24 1011.26 1011.81 1012.64 1012.87 1012.50 1010.66 1009.54 1008.66 1008.88 1009.52 1009.78 1010.20 1010.87 1011.14 1011.54 1012.01 1012.27 1012.57 1013.63 1014.19 1014.59 1013.81 1013.80 1014.11 1014.98 1015.92 1017.20 1018.83 1019.72 1020.14 1018.93 1016.87 1014.91 1011.41 1009.40 1008.65 1008.11 1007.85 1007.44 1007.08 1007.00
1011.60 1011.78 1011.98 1012.42 1012.03 1012.54 1012.92 1012.67 1011.79 1010.82 1008.98 1008.37 1009.56 1009.92 1010.32 1010.67 1011.02 1011.76 1012.08 1012.53 1012.64 1012.80 1013.45 1014.26 1014.36 1013.93 1013.82 1014.20 1014.78 1016.25 1017.39 1018.38 1019.64 1020.28 1019.80 1016.86 1013.96 1011.14 1009.38 1008.76 1008.43 1008.20 1007.71 1007.66 1007.26
1012.65 1012.69 1012.91 1012.93 1012.38 1012.70 1013.20 1012.39 1011.55 1010.90 1009.08 1009.12 1009.50 1010.00 1010.40 1010.93 1011.41 1011.86 1012.37 1012.52 1012.53 1012.63 1012.84 1013.56 1014.43 1014.34 1014.14 1014.37 1015.00 1015.85 1017.07 1018.64 1019.75 1020.48 1019.58 1016.65 1014.61 1011.45 1009.62 1009.12 1008.88 1008.65 1008.46 1008.21 1007.67
1013.14 1013.36 1013.35 1012.78 1012.95 1013.28 1013.23 1012.58 1011.67 1010.44 1009.88 1009.51 1009.43 1009.73 1010.17 1010.82 1011.42 1012.00 1012.42 1012.22 1012.21 1012.63 1012.87 1013.20 1014.05 1015.16 1014.73 1014.96 1015.42 1016.34 1017.06 1018.05 1019.02 1019.69 1019.38 1017.63 1013.76 1010.55 1009.61 1009.26 1009.00 1008.78 1008.51 1008.18 1007.77
1013.64 1013.97 1013.19 1012.72 1013.16 1013.22 1012.79 1012.40 1012.03 1010.80 1009.79 1009.31 1009.12 1009.48 1010.16 1010.75 1011.55 1011.95 1012.23 1011.99 1011.87 1012.35 1013.03 1013.26 1014.38 1015.94 1015.77 1015.62 1015.60 1016.07 1016.80 1017.74 1018.87 1019.29 1019.20 1018.22 1013.67 1009.95 1009.09 1008.85 1008.59 1008.21 1007.83 1007.37 1006.97
1014.00 1013.94 1013.37 1013.12 1013.30 1013.05 1012.55 1012.03 1011.59 1010.37 1009.49 1009.03 1009.06 1009.26 1009.81 1010.54 1011.45 1011.74 1011.81 1011.71 1011.70 1012.22 1012.72 1013.45 1014.95 1016.39 1016.67 1016.55 1016.24 1016.43 1016.70 1017.23 1018.07 1018.45 1018.16 1017.63 1012.62 1009.67 1009.18 1008.39 1007.97 1007.66 1007.54 1007.26 1006.87
1014.32 1014.24 1013.71 1013.39 1013.10 1012.95 1012.43 1011.68 1010.89 1009.61 1009.09 1008.44 1008.82 1009.09 1009.66 1010.46 1010.73 1011.51 1011.90 1012.04 1012.00 1012.21 1012.79 1013.55 1015.27 1016.21 1016.63 1016.43 1016.42 1016.51 1016.26 1016.69 1017.39 1017.64 1016.60 1014.68 1011.78 1009.98 1009.30 1008.27 1007.79 1007.74 1007.47 1007.27 1007.18
1014.51 1014.89 1014.52 1013.79 1012.96 1012.62 1012.04 1011.24 1010.46 1009.71 1009.10 1008.98 1009.42 1009.57 1009.86 1010.63 1011.19 1011.69 1012.11 1012.34 1012.45 1012.79 1013.43 1014.25 1015.78 1016.52 1016.52 1016.29 1016.15 1015.99 1015.98 1016.14 1016.40 1015.56 1015.51 1012.92 1012.30 1009.94 1009.36 1008.48 1008.21 1007.89 1007.73 1007.59 1007.32
1015.17 1015.08 1014.45 1013.77 1012.90 1012.35 1011.88 1011.33 1010.73 1010.26 1009.83 1009.99 1010.30 1010.22 1010.06 1010.84 1011.11 1011.49 1011.87 1012.40 1012.69 1013.32 1013.98 1014.88 1016.20 1016.73 1016.62 1015.78 1015.58 1015.40 1014.77 1014.75 1014.78 1014.40 1013.63 1012.45 1011.32 1009.71 1008.90 1008.38 1008.47 1008.70 1008.68 1008.33 1007.90
1015.50 1015.04 1014.81 1013.66 1012.98 1012.42 1011.99 1011.43 1010.89 1010.51 1010.59 1010.55 1010.53 1010.59 1010.96 1011.41 1011.22 1011.30 1011.54 1012.04 1012.43 1013.24 1014.27 1015.18 1016.17 1016.99 1016.82 1015.66 1015.06 1014.06 1012.38 1012.63 1012.48 1012.12 1011.80 1011.22 1009.59 1008.75 1008.63 1008.72 1009.27 1009.50 1009.56 1009.16 1008.56
Wind_Speed
18 18 16 16 15 17 17 17 18 20 20 15 11 10 9 8 9 5 11 9 11 10 5 3 4 5 3 2 3 5 3 4 5 7 5 4 4 5 4 3 1 1 8 6 10
19 18 19 18 16 16 18 17 18 20 21 21 13 10 8 6 7 12 10 15 18 20 3 5 4 5 2 4 3 5 5 8 5 5 3 5 2 6 8 3 2 3 4 6 8
20 20 19 19 18 15 17 17 16 19 21 22 14 9 5 2 5 9 17 22 21 16 9 5 2 4 4 3 5 4 6 8 6 7 0 4 5 2 4 5 4 3 4 5 4
21 21 20 20 19 16 15 18 16 18 19 19 20 8 4 2 8 2 5 25 17 9 8 5 4 3 6 6 5 3 6 7 4 7 3 3 4 3 5 6 3 2 1 6 6
19 18 16 20 19 19 18 16 19 15 19 17 20 11 5 4 9 5 7 20 13 9 9 6 5 5 5 7 4 3 3 5 7 8 4 6 6 6 7 9 9 4 4 6 6
22 20 19 17 16 17 17 18 18 16 18 18 18 9 4 7 6 5 2 14 11 9 6 7 7 7 4 3 8 2 6 5 4 4 4 6 6 5 4 7 11 7 6 8 7
21 19 19 19 16 16 16 17 17 14 17 18 17 10 7 14 4 5 4 5 7 10 6 5 3 4 5 1 5 3 4 3 5 4 4 2 14 9 10 10 10 12 11 6 9
20 18 17 17 14 15 16 16 15 17 17 19 15 8 6 8 10 7 3 3 5 6 7 6 3 1 3 2 3 5 4 0 4 2 6 9 18 3 10 7 11 12 11 12 9
17 17 17 17 15 15 14 15 18 18 17 15 6 6 6 5 6 7 5 4 5 6 9 7 5 1 2 6 3 1 2 4 7 8 7 9 2 11 15 11 9 12 10 10 13
16 16 17 16 13 12 14 17 19 14 7 6 6 3 5 6 7 8 6 4 3 7 8 4 4 3 3 4 6 6 4 3 5 4 1 7 9 11 7 6 10 10 11 11 11
19 17 18 15 13 12 8 5 5 2 2 4 6 3 4 4 8 9 5 5 4 3 5 5 3 5 8 4 3 4 1 2 4 3 5 7 5 12 13 7 10 14 13 13 14
20 18 16 16 16 11 3 2 3 3 6 8 6 12 6 7 9 12 9 7 5 5 4 3 2 8 14 11 7 2 3 4 6 1 3 7 16 16 15 14 16 20 19 15 13
20 17 17 15 15 6 3 5 5 3 2 4 9 14 4 5 4 13 9 6 6 7 4 5 3 6 6 7 7 4 4 2 5 5 1 8 11 7 7 8 9 16 16 13 15
19 18 18 19 10 2 2 4 5 2 2 4 8 5 4 5 4 5 6 6 4 8 7 4 1 6 7 2 3 2 3 2 2 4 4 6 9 7 8 10 7 8 8 12 13
19 19 20 17 5 3 2 5 4 2 5 9 5 1 5 0 14 7 2 2 6 7 5 4 5 6 4 4 5 4 5 4 2 3 4 3 2 11 4 6 5 4 5 8 10
21 20 20 6 1 3 8 5 2 2 2 6 7 10 9 7 2 6 2 3 4 6 5 3 2 3 6 4 4 7 5 7 4 3 3 5 5 8 3 4 2 4 9 9 9
24 21 16 3 1 7 7 2 4 2 2 5 9 17 14 5 6 7 6 3 5 6 4 2 2 2 4 7 3 5 6 3 5 3 7 1 3 11 9 12 4 8 11 10 4
14 7 4 3 4 7 4 2 1 6 5 8 13 14 7 10 7 8 7 4 2 5 5 5 2 6 3 5 6 3 6 6 5 2 5 2 6 8 6 8 5 2 6 5 6
12 3 4 6 4 4 1 3 3 4 5 11 15 6 5 5 7 6 6 6 4 3 6 5 2 2 5 4 7 3 2 4 4 3 4 5 8 10 3 4 5 8 10 10 10
3 3 4 5 6 4 1 5 4 3 9 9 4 2 5 5 7 5 9 6 3 6 1 5 4 2 2 5 2 5 6 4 3 1 4 6 6 7 4 4 5 7 8 7 7
4 3 3 5 2 2 3 5 5 8 2 2 4 5 8 7 8 5 9 1 7 4 4 1 5 2 4 4 6 4 2 2 4 4 4 4 8 7 4 2 7 7 7 7 7
3 4 3 3 3 1 2 2 3 5 5 5 5 10 5 5 4 4 8 3 7 6 5 1 5 3 7 2 3 4 5 6 5 4 2 2 11 7 4 2 7 17 16 20 18
2 1 1 2 3 3 5 5 3 4 5 4 4 3 5 6 6 3 5 4 9 8 8 4 2 3 4 6 3 4 5 5 4 2 6 2 9 1 9 20 19 17 18 17 14
3 3 3 2 1 2 2 2 3 5 5 5 6 10 5 3 3 4 3 5 3 3 9 7 3 5 6 6 3 3 5 7 8 4 3 10 18 22 17 21 20 19 16 11 9
4 2 0 3 3 2 3 5 7 7 7 7 7 4 4 4 6 4 3 3 6 4 4 5 3 3 5 6 2 6 5 7 9 17 7 14 16 25 22 23 18 15 9 11 9
2 3 3 3 4 4 5 6 7 6 5 4 6 3 8 4 1 6 6 3 4 1 4 2 1 3 5 4 7 7 10 11 13 16 18 21 24 22 20 11 12 10 12 13 13
3 2 2 5 2 2 2 4 5 2 7 6 5 7 10 5 3 4 4 6 7 7 3 4 4 3 5 3 4 6 11 13 7 6 9 8 10 9 13 13 5 9 11 13 15
Wind_Direction
329 327 327 324 330 330 314 324 326 322 328 265 249 253 260 275 282 252 239 218 201 205 139 137 181 200 118 223 193 131 120 211 227 176 233 296 7 289 228 243 327 64 159 190 149
319 319 319 321 322 323 322 309 318 321 318 328 245 243 253 276 269 252 231 215 210 212 228 210 190 171 161 193 209 153 172 217 209 222 264 306 9 328 348 257 18 14 36 99 135
317 315 308 310 315 317 317 317 305 311 314 314 264 226 239 269 256 244 217 218 206 219 213 192 126 167 183 162 206 189 190 219 250 276 30 319 310 291 314 265 45 320 150 141 153
314 309 314 316 316 313 309 311 310 306 299 309 323 208 190 216 228 227 317 196 202 164 153 156 146 174 185 194 213 188 200 218 229 266 297 272 278 270 234 245 266 216 320 318 248
319 313 312 310 312 308 309 307 301 294 301 305 300 186 146 218 245 271 300 182 196 146 175 168 161 167 188 178 240 214 259 236 247 266 236 271 248 241 229 272 287 168 213 251 274
321 320 312 306 306 311 306 303 300 294 297 296 297 186 151 227 241 242 273 173 171 157 175 160 187 200 203 198 170 205 221 240 261 239 234 247 249 205 254 233 290 290 235 223 254
320 321 313 310 317 306 305 304 297 296 292 290 294 202 194 221 286 166 152 161 165 181 167 190 175 193 186 163 191 162 174 283 232 227 244 0 272 221 229 250 250 284 285 243 224
325 320 313 310 314 304 303 302 297 289 284 285 286 225 232 218 251 304 135 164 193 187 200 183 125 301 179 166 112 131 65 52 265 274 243 163 253 241 239 252 269 270 273 277 231
329 322 321 321 313 308 301 298 291 281 278 279 289 189 231 165 190 217 189 189 170 169 188 100 120 206 112 127 63 11 190 213 305 219 227 179 269 244 241 226 245 260 260 267 274
333 325 320 313 329 324 313 307 282 279 278 239 254 123 257 196 163 176 192 196 162 152 119 126 144 173 133 148 190 202 190 223 238 327 273 257 254 268 273 235 234 244 255 255 254
322 320 315 320 318 317 328 338 10 21 265 213 150 219 181 157 125 173 162 139 111 140 149 167 138 170 166 222 123 145 141 287 273 291 334 270 266 272 272 267 263 259 243 251 248
326 323 318 316 315 304 319 248 212 180 313 244 264 230 241 156 145 171 149 153 146 151 125 129 183 178 188 214 211 236 326 297 283 251 276 303 286 271 259 251 234 248 255 251 256
324 319 316 314 321 322 220 234 157 217 298 240 233 218 172 114 119 163 169 133 146 143 146 134 159 155 162 169 209 165 167 239 263 319 349 319 272 256 287 263 256 246 249 251 246
323 319 317 320 306 212 278 201 159 125 118 221 201 203 173 149 69 113 182 134 151 161 129 160 210 163 151 141 121 133 81 133 44 40 266 41 291 297 280 303 289 276 251 245 246
320 313 311 316 284 210 114 148 131 53 111 154 150 304 115 321 140 191 42 42 145 134 117 199 165 121 119 164 146 171 122 99 66 40 0 277 225 274 300 304 307 290 276 277 253
314 306 311 296 208 193 143 136 40 167 225 165 124 181 122 133 39 113 107 33 113 93 59 112 132 108 154 89 119 144 75 42 49 62 334 241 180 284 264 250 268 300 295 291 282
300 298 306 268 13 136 132 110 66 254 302 175 154 142 131 123 120 140 154 118 133 130 122 73 49 102 101 93 66 93 70 353 355 355 230 179 158 252 270 276 274 305 299 299 238
355 15 342 345 104 101 68 35 115 255 228 146 133 132 104 125 132 135 136 117 34 79 118 141 287 171 193 152 170 170 136 158 224 227 287 329 238 253 234 283 297 321 309 313 308
18 18 26 6 54 64 332 11 289 337 323 128 115 99 110 77 125 127 182 159 196 154 131 125 269 174 160 133 125 198 145 189 99 17 31 260 292 293 140 66 24 6 16 354 336
40 35 19 341 346 54 350 328 278 285 123 116 85 61 112 120 119 137 166 185 206 181 127 191 92 137 110 88 109 134 153 63 355 221 274 279 276 247 294 354 5 14 6 351 344
47 60 282 325 74 37 353 336 317 331 168 108 133 126 118 123 124 146 175 304 177 178 174 112 99 295 113 184 175 151 189 121 121 165 204 316 270 221 216 115 313 306 280 284 279
88 63 283 356 61 234 309 336 336 296 274 287 82 103 92 95 119 134 189 254 183 146 163 34 105 149 199 288 184 166 184 149 127 267 245 163 264 274 293 294 301 321 319 318 309
53 277 341 31 36 343 343 321 267 256 240 139 109 120 139 124 139 143 132 328 173 157 161 168 30 60 18 2 15 191 196 168 118 117 206 177 261 290 307 324 315 316 310 306 303
72 27 333 13 225 304 304 292 283 227 282 92 104 122 99 102 55 120 98 32 104 128 142 94 141 159 182 203 143 186 187 187 181 204 209 232 284 287 296 308 312 314 304 321 329
16 327 303 328 315 336 252 332 32 16 19 35 84 107 117 118 114 104 98 80 35 62 69 100 166 148 243 249 178 201 206 195 195 234 240 272 285 287 297 297 308 307 321 315 316
30 354 329 285 294 2 358 351 13 360 32 37 95 54 78 76 233 160 128 126 180 51 94 53 177 87 297 258 212 247 240 227 237 248 258 268 275 279 278 303 325 348 337 322 323
329 308 297 282 279 27 314 332 355 20 37 41 108 78 55 18 24 85 116 154 155 138 118 116 114 72 277 301 321 280 227 200 202 210 214 235 250 291 309 329 357 340 329 319 306